Weather in Ozyorny

Russia / Sverdlovsk Oblast     57°18′03″N   61°12′32″E
temp.,
°C
wind,
m/s
gust,
m/s
humid.,
%
clouds,
%
prec.,
mm/h
press.,
hPa
HPBL,
m
26 july, mon
mon2623:00+14n3855100 0.0 1017491
02:00+11wnw276567 0.0 1018179
05:00+7wnw257824 0.0 101990
08:00+13w3761100 0.0 1018340
11:00+16wnw5740100 0.0 10182474
14:00+17w3638100 0.0 10172198
17:00+17wnw474898 0.0 10161008
20:00+15w3758100 0.0 1016298
27 july, tue
tue2723:00+11w387313 0.0 1016171
02:00+10wsw3108561 0.0 1015214
05:00+13wsw4127095 0.0 1013420
08:00+15wsw5126478 0.0 1012683
11:00+12w41194100 2.0 1011617
14:00+16wnw477363 1.1 10101112
17:00+18wnw575966 1.6 10101495
20:00+15wnw497177 0.4 1009372
28 july, wed
wed2823:00+11nw26725 0.5 1011227
02:00+7wnw27915 0.0 1011139
05:00+6w389316 0.0 1011171
08:00+12w497038 0.1 1010594
11:00+13wnw597292 0.8 10091281
14:00+14nw696058 0.8 10091572
17:00+15wnw574418 0.9 10101918
20:00+12nw48595 0.0 1011807
29 july, thu
thu2923:00+7w268090 0.0 1012105
02:00+7sw257497 0.0 1011114
05:00+7w2476100 0.1 1011120
08:00+9s258298 0.4 1010243
11:00+15wsw357033 0.4 1008798
14:00+19nw495749 1.1 10071644
17:00+20wsw4851100 1.3 10061497
20:00+16wnw248099 0.8 100685
30 july, fri
fri3023:00+13wsw4119695 2.9 1006333
02:00+12wsw31197100 0.4 1005230
05:00+12wsw31098100 0.4 1006274
08:00+16w3791100 0.0 1006393
11:00+20wsw4571100 0.0 1006835
14:00+23sw345980 0.0 10051346
17:00+24ssw2352100 0.1 10041759
20:00+18ssw2587100 0.8 1004134